EW4787 Weather Reports


time (UTC)temp
C
wind
direction
speed
KPH
gust
KPH
rain 1hr
cm
rain 24hr
cm
rain mn
cm
humidity
%
barometer
mb
20260510113048 -17 21 11.3 27.4 0.00 0.00 0.00 1011.6
20260510111547 -17 51 8.0 19.3 0.00 0.00 0.00 1011.5
20260510110039 -17 43 8.0 29.0 0.00 0.00 0.00 1011.5
20260510104550 -17 29 8.0 24.1 0.00 0.00 0.00 1011.8
20260510103030 -17 11 6.4 25.7 0.00 0.00 0.00 1011.8
20260510101524 -17 79 11.3 24.1 0.00 0.00 0.00 1011.6
20260510100020 -17 65 11.3 35.4 0.00 0.00 0.00 1011.6
20260510094515 -17 50 8.0 25.7 0.00 0.00 0.00 1011.8
20260510093012 -17 34 8.0 20.9 0.00 0.00 0.00 1011.8
20260510091507 -17 51 8.0 29.0 0.00 0.00 0.00 1011.8
20260510090005 -17 74 6.4 24.1 0.00 0.00 0.00 1012.1
20260510084612 -17 39 6.4 20.9 0.00 0.00 0.00 1012.0
20260510083115 -17 321 8.0 24.1 0.00 0.00 0.00 1012.0
20260510081610 -17 35 4.8 22.5 0.00 0.00 0.00 1012.0
20260510080051 -17 30 0.0 0.0 0.00 0.00 0.00 1012.1
20260510074542 -17 340 8.0 25.7 0.00 0.00 0.00 1012.2
20260510073047 -17 34 8.0 20.9 0.00 0.00 0.00 1012.2
20260510071534 -17 47 3.2 17.7 0.00 0.00 0.00 1012.3
20260510070035 -17 62 4.8 19.3 0.00 0.00 0.00 1012.4
20260510064525 -17 57 4.8 17.7 0.00 0.00 0.00 1012.3
20260510063022 -17 38 4.8 19.3 0.00 0.00 0.00 1012.2
20260510061516 -17 10 3.2 17.7 0.00 0.00 0.00 1012.1
20260510060021 -17 16 4.8 19.3 0.00 0.00 0.00 1012.0
20260510054507 -17 74 3.2 17.7 0.00 0.00 0.00 1012.0
20260510053003 -17 74 1.6 14.5 0.00 0.00 0.00 1012.1
20260510051559 -17 34 3.2 12.9 0.00 0.00 0.00 1012.0
20260510050054 -17 337 4.8 12.9 0.00 0.00 0.00 1011.9
20260510044550 -17 80 1.6 14.5 0.00 0.00 0.00 1011.8
20260510043046 -17 327 0.0 6.4 0.00 0.00 0.00 1011.8
20260510041541 -17 332 1.6 9.7 0.00 0.00 0.00 1012.0
20260510040037 -17 36 3.2 12.9 0.00 0.00 0.00 1012.1
20260510034532 -17 39 3.2 12.9 0.00 0.00 0.00 1012.1
20260510033027 -17 346 3.2 9.7 0.00 0.00 0.00 1012.3
20260510031522 -17 335 3.2 9.7 0.00 0.00 0.00 1012.3
20260510030017 -17 327 0.0 8.0 0.00 0.00 0.00 1012.4
20260510024515 -17 339 1.6 6.4 0.00 0.00 0.00 1012.3
20260510023009 -17 329 1.6 6.4 0.00 0.00 0.00 1012.3
20260510021505 -17 338 0.0 0.0 0.00 0.00 0.00 1012.2
20260510020100 -17 332 0.0 0.0 0.00 0.00 0.00 1012.3
20260510014600 -17 311 0.0 4.8 0.00 0.00 0.00 1012.5
20260510013106 -17 338 1.6 6.4 0.00 0.00 0.00 1012.2
20260510011547 -17 340 0.0 3.2 0.00 0.00 0.00 1012.4
20260510010043 -17 11 3.2 9.7 0.00 0.00 0.00 1012.4
20260510004539 -17 347 3.2 8.0 0.00 0.00 0.00 1012.3
20260510003034 -17 13 3.2 16.1 0.00 0.00 0.00 1012.4
20260510001530 -17 38 0.0 6.4 0.00 0.00 0.00 1012.4
20260510000025 -17 46 3.2 8.0 0.00 0.00 0.00 1012.6
20260509234533 -17 45 1.6 6.4 0.00 0.00 0.00 1012.5
20260509233017 -17 81 1.6 9.7 0.00 0.00 0.00 1012.4
20260509231512 -17 47 0.0 8.0 0.00 0.00 0.00 1012.5
20260509230008 -17 31 1.6 9.7 0.00 0.00 0.00 1012.6
20260509224507 -17 19 1.6 6.4 0.00 0.00 0.00 1012.5
20260509223006 -17 5 0.0 6.4 0.00 0.00 0.00 1012.4
20260509221507 -17 35 3.2 9.7 0.00 0.00 0.00 1012.3
20260509220011 -17 42 4.8 12.9 0.00 0.00 0.00 1012.4
20260509214505 -17 34 3.2 11.3 0.00 0.00 0.00 1012.5
20260509213005 -17 360 6.4 14.5 0.00 0.00 0.00 1012.5
20260509211504 -17 62 4.8 17.7 0.00 0.00 0.00 1012.4
20260509210004 -17 349 6.4 16.1 0.00 0.00 0.00 1012.3
20260509204504 -17 360 8.0 16.1 0.00 0.00 0.00 1012.1
20260509203002 -17 30 4.8 12.9 0.00 0.00 0.00 1012.0
20260509201500 -17 346 4.8 16.1 0.00 0.00 0.00 1012.1
20260509200109 -17 48 4.8 11.3 0.00 0.00 0.00 1012.2
20260509194554 -17 34 4.8 12.9 0.00 0.00 0.00 1012.0
20260509193050 -17 30 3.2 6.4 0.00 0.00 0.00 1011.9
20260509191545 -17 21 3.2 8.0 0.00 0.00 0.00 1011.7
20260509190052 -17 5 4.8 9.7 0.00 0.00 0.00 1011.8
20260509184540 -17 338 4.8 14.5 0.00 0.00 0.00 1011.8
20260509183032 -17 360 4.8 17.7 0.00 0.00 0.00 1011.7
20260509181526 -17 68 4.8 14.5 0.00 0.00 0.00 1011.6
20260509180023 -17 42 6.4 24.1 0.00 0.00 0.00 1011.5
20260509174518 -17 45 6.4 17.7 0.00 0.00 0.00 1011.5
20260509173013 -17 59 6.4 16.1 0.00 0.00 0.00 1011.4
20260509171511 -17 51 8.0 22.5 0.00 0.00 0.00 1011.3
20260509170004 -17 42 9.7 22.5 0.00 0.00 0.00 1011.4
20260509164502 -17 40 4.8 20.9 0.00 0.00 0.00 1011.6
20260509163110 -17 40 8.0 20.9 0.00 0.00 0.00 1011.5
20260509161601 -17 45 6.4 22.5 0.00 0.00 0.00 1011.6
20260509160055 -17 22 9.7 24.1 0.00 0.00 0.00 1011.7
20260509154551 -17 55 9.7 22.5 0.00 0.00 0.00 1011.8
20260509153046 -17 12 6.4 17.7 0.00 0.00 0.00 1011.9
20260509151542 -17 54 4.8 17.7 0.00 0.00 0.00 1012.1
20260509150037 -17 28 6.4 16.1 0.00 0.00 0.00 1012.1
20260509144535 -17 355 4.8 19.3 0.00 0.00 0.00 1011.8
20260509143029 -17 60 6.4 19.3 0.00 0.00 0.00 1011.7
20260509141536 -17 56 8.0 17.7 0.00 0.00 0.00 1011.5
20260509140021 -17 344 9.7 19.3 0.00 0.00 0.00 1011.6
20260509134519 -17 32 6.4 19.3 0.00 0.00 0.00 1011.7
20260509133015 -17 57 8.0 25.7 0.00 0.00 0.00 1011.7
20260509131510 -17 59 6.4 20.9 0.00 0.00 0.00 1011.7
20260509130005 -17 55 9.7 22.5 0.00 0.00 0.00 1011.9
20260509124500 -17 50 8.0 24.1 0.00 0.00 0.00 1011.9
20260509123100 -17 39 6.4 19.3 0.00 0.00 0.00 1012.0
20260509121552 -17 58 3.2 14.5 0.00 0.00 0.00 1012.2
20260509120048 -17 19 9.7 19.3 0.00 0.00 0.00 1012.2
20260509114544 -17 54 4.8 14.5 0.00 0.00 0.00 1012.4